Location: Newark
(45.0500°N, 41.9667°E)
Time: 10:39:01
(UTC+00:00)

Starlink (trailer) - Pass Details

Date: 29 July 2019
Orbit: 549 x 550 km, 53.0° (Epoch: 21 August)

Event Time Altitude Azimuth Distance (km) Brightness Sun altitude
Rises 00:01:39 0° 301° (WNW) 2,723 7.1 -16.1°
Reaches altitude 10° 00:04:00 10° 309° (NW) 1,828 6.3 -15.9°
Maximum altitude 00:07:55 40° 20° (NNE) 823 5.0 -15.4°
Drops below altitude 10° 00:11:51 10° 91° (E) 1,824 6.9 -14.9°
Sets 00:14:11 0° 99° (E) 2,716 7.7 -14.7°
